Regional Weather Roundup
Issued by NWS

Home | Current Version | Previous Version | Graphics & Text | Print | Product List | Glossary On
Versions: 1 2 3 4 5 6 7 8 9 10 11 12 13 14 15 16 17 18 19 20 21 22 23 24 25 26 27 28 29 30 31 32 33 34 35 36 37 38 39 40 41 42 43 44 45 46 47 48 49 50
000
ASUS43 KMKX 301521
RWRWI

WISCONSIN REGIONAL WEATHER ROUNDUP
NATIONAL WEATHER SERVICE MILWAUKEE/SULLIVAN WI
1000 AM CDT SAT JUL 30 2016

NOTE: "FAIR" INDICATES FEW OR NO CLOUDS BELOW 12,000 FEET WITH NO
SIGNIFICANT WEATHER AND/OR OBSTRUCTIONS TO VISIBILITY.

WIZ001-002-006>008-014>016-023>028-301600-
NORTHWEST WISCONSIN

CITY           SKY/WX    TMP DP  RH WIND       PRES   REMARKS
SUPERIOR ARPT  PTSUNNY   65  61  86 E3        30.07S
ASHLAND        CLOUDY    72  60  66 VRB3      30.07F
HAYWARD        MOSUNNY   72  54  53 S8        30.08S
SIREN          NOT AVBL
CUMBERLAND     MOSUNNY   70  55  60 SE3       30.07S
RICE LAKE      SUNNY     71  56  59 E7        30.07F
CHETEK         SUNNY     71  57  60 MISG      30.06F
LADYSMITH      SUNNY     72  56  58 E5        30.09S
EAU CLAIRE     SUNNY     72  56  57 E7        30.04F
MENOMONIE      SUNNY     75  58  55 E5        30.05S
NEW RICHMOND   CLOUDY    72  63  75 CALM      30.05S
OSCEOLA        SUNNY     71  63  76 E5        30.07S
$$

WIZ003>005-009-010-017-018-301600-
NORTH CENTRAL WISCONSIN

CITY           SKY/WX    TMP DP  RH WIND       PRES   REMARKS
MANITOWISH WTR PTSUNNY   67  58  74 E3        30.10F
ARBOR VITAE    SUNNY     72  56  57 SE5       30.10S
WOODRUFF       SUNNY     72  56  57 SE5       30.10S
RHINELANDER    SUNNY     70  58  65 E7        30.11S
EAGLE RIVER    SUNNY     71  53  53 E6        30.10F
LAND O LAKES   MOSUNNY   71  52  50 SE6       30.12S
PHILLIPS       SUNNY     72  57  59 E6        30.08F
TOMAHAWK       SUNNY     70  59  67 CALM      30.09F
MEDFORD        SUNNY     69  59  69 E5        30.08S
MERRILL        SUNNY     71  62  72 E6        30.09S
$$

WIZ029-030-035-036-043>047-301600-
CENTRAL WISCONSIN

CITY           SKY/WX    TMP DP  RH WIND       PRES   REMARKS
WAUSAU         SUNNY     70  61  73 E8        30.06F
MOSINEE        SUNNY     70  61  73 E7        30.08F
MARSHFIELD     MOSUNNY   72  61  68 VRB6      30.06F
STEVENS POINT  CLOUDY    68  60  75 E7        30.07F
WAUPACA        CLOUDY    71  63  76 NE7       30.06F
WAUTOMA        CLOUDY    69  63  81 NE9       30.05F
WISC RAPIDS    CLOUDY    70  59  68 E9        30.07S
CAMP DOUGLAS   MOSUNNY   72  63  73 SE7       30.04S
$$

WIZ011>013-019>022-031-037>040-048>050-301600-
NORTHEAST WISCONSIN

CITY           SKY/WX    TMP DP  RH WIND       PRES   REMARKS
ANTIGO         SUNNY     68  60  75 E10       30.10S
SHAWANO        PTSUNNY   74  62  66 NE7       30.08S
OCONTO         SUNNY     72  60  67 E9        30.08R
STURGEON BAY   SUNNY     72  56  57 E6        30.09R
GREEN BAY      SUNNY     73  62  68 NE12      30.06S
MANITOWOC      SUNNY     71  59  65 E9        30.06S
APPLETON       PTSUNNY   72  55  56 NE9       30.05S
CLINTONVILLE   MOSUNNY   72  57  60 E8        30.07S
OSHKOSH        CLOUDY    72  60  66 NE12      30.05S
$$

WIZ032>034-041-042-053>061-301600-
SOUTHWEST WISCONSIN

CITY           SKY/WX    TMP DP  RH WIND       PRES   REMARKS
LA CROSSE      PTSUNNY   74  62  66 E6        30.02F
SPARTA         MOSUNNY   73  62  68 NE6       30.05S
VIROQUA        CLOUDY    72  63  72 E5        30.05S
BOSCOBEL       CLOUDY    72  64  76 N6        30.02F
PRAIRIE DU CHI CLOUDY    71  64  77 E6        30.01F
PLATTEVILLE    MOSUNNY   72  67  84 NE5       30.02S
$$

WIZ056-057-062-063-064-067-068-301600-
SOUTH CENTRAL WISCONSIN

CITY           SKY/WX    TMP DP  RH WIND       PRES   REMARKS
REEDSBURG      CLOUDY    69  63  80 E6        30.04R
BARABOO/DELLS  CLOUDY    67  62  81 E8        30.04F
LONE ROCK      CLOUDY    70  62  76 E8        30.03S
MINERAL POINT  MOSUNNY   72  64  78 E7        30.03S
MADISON        CLOUDY    70  62  76 NE10      30.02F
MIDDLETON      CLOUDY    72  62  70 NE8       30.03F
WATERTOWN      CLOUDY    73  64  71 E8        30.02S
MONROE         MOSUNNY   70  64  83 NE5       30.01F
JANESVILLE     PTSUNNY   73  64  73 E9        30.00F
$$

WIZ051-052-058>065-066-070>072-301600-
SOUTHEAST WISCONSIN

CITY           SKY/WX    TMP DP  RH WIND       PRES   REMARKS
MILWAUKEE      PTSUNNY   72  64  76 NE12      30.02S
WAUKESHA       MOSUNNY   72  61  68 E9        30.03S
MILWAUKEE/TIMM PTSUNNY   72  59  64 NE13      30.03S
RACINE         CLOUDY    73  65  75 NE10      30.03S
BURLINGTON     MOSUNNY   73  63  70 NE8       30.01S
KENOSHA        CLOUDY    72  64  76 NE10      30.01S
FOND DU LAC    CLOUDY    75  61  61 NE9       30.05S
SHEBOYGAN      CLOUDY    72  62  71 NE14      30.05S
WEST BEND      CLOUDY    72  61  68 NE13      30.04S
JUNEAU         CLOUDY    70  62  75 NE9       30.05S
$$

LSZ147-162-301600-
LAKE SUPERIOR

STATION/POSITION TIME  TEMP    WIND        PRES    WAVE
                       AIR SEA DIR/SP/G            HT/PER
                 (UTC) (F)     (DEG/KT/KT) (MB)    (FT/S)
W MID LAKE BUOY  1450   63 62   80/  4/  4 1018.1R   1
DEVILS ISLAND    1500   65      10/  3/  3 1018.2F
PORT WING        1400   59     310/  3/  4 1018.6R
SAXON HARBOR     1440   67      30/  3/  4 1018.3S
$$

LMZ867-665-643>646-301600-
LAKE MICHIGAN

STATION/POSITION TIME  TEMP    WIND        PRES    WAVE
                       AIR SEA DIR/SP/G            HT/PER
                 (UTC) (F)     (DEG/KT/KT) (MB)    (FT/S)
CHAMBERS ISLAND  1400   71      70/  9/ 11 1018.3F
S GREEN BAY BUOY 1500   70 71   60/ 12/ 14 1017.9
N MID LAKE BUOY  1450   69 70   80/ 10/ 10 1018.2F   1/ 3
NORTHPORT PIER   1400   75      90/  6/  9 1019.0R
SISTER BAY       1406   77     130/ 11/ 14   N/A
ALGOMA LAKESHORE 1443           80/ 16/ 17   N/A
KEWAUNEE LAKESHO 1400   69      60/  5/  8 1017.6R
SHEBOYGAN LAKESH 1500   68      40/ 10/ 10 1017.7R
PORT WASHINGTON  1400   72      60/  4/  6 1017.6
ATWATER BUOY     1500   65 62   20/  8/ 10 1018.3S
MILWAUKEE LAKESH 1410   66      30/  8/  8   N/A
S MID LAKE BUOY  1450   68 73   70/  8/ 10 1015.5R   2/ 4
KENOSHA   LAKESH 1500   70      50/ 11/ 12 1015.6F
$$

TC  - TEMPERATURE IN CELSIUS
VSB - VISIBILITY IN STATUTE MILES
WCI - WIND CHILL INDEX
HX  - HEAT INDEX




USA.gov is the U.S. government's official web portal to all federal, state and local government web resources and services.